Location: Gleizolles
(44.4833°N, 6.7667°E)
Time: 06:16:35
(UTC+00:00)

Oscar 11 - Visible Passes

Search period start: 06 December 2022 00:00
Search period end: 16 December 2022 00:00
Orbit: 610 x 623 km, 97.6° (Epoch: 05 December)

Date Brightness Start Highest point End Pass type
(mag) Time Alt. Az. Time Alt. Az. Time Alt. Az.
06 Dec 10.0 16:29:06 10° SW 16:31:58 17° W 16:34:50 10° NW visible
07 Dec 10.4 16:46:54 10° WSW 16:48:23 12° W 16:49:52 10° WNW visible
12 Dec 10.0 16:30:35 10° SW 16:33:17 16° W 16:36:01 10° NW visible
13 Dec 10.4 16:48:34 10° WSW 16:49:42 11° W 16:50:50 10° WNW visible
